Terminal Aerodrome Forecast
Issued by NWS Raleigh/Durham, NC

Home | Current Version | Previous Version | Text Only | Print | Product List | Glossary On
Versions: 1 2 3 4 5 6 7 8 9 10 11 12 13 14 15 16 17 18 19 20 21 22 23 24 25 26 27 28 29 30 31 32 33 34 35 36 37 38 39 40 41 42 43 44 45 46 47 48 49 50
000
FTUS42 KRAH 292336
TAFGSO
TAF
KGSO 292336Z 3000/3024 VRB03KT P6SM VCSH FEW035 BKN100
     FM300200 VRB03KT P6SM SCT070 BKN150
     FM301000 VRB04KT 5SM BR SCT250
     FM301300 26006KT P6SM SCT050 SCT250
     FM301900 28006KT P6SM VCSH OVC050 PROB30 3019/3023 4SM TS
      BKN050CB=

USA.gov is the U.S. government's official web portal to all federal, state and local government web resources and services.